星链-5016 (STARLINK-5016 )

导读

STARLINK-5016是美国SpaceX公司星链星座的一员,于2023年3月29日发射入轨。星链项目旨在构建全球卫星互联网星座,为全球偏远地区、海洋航空器等提供高速低延迟网络服务。该卫星加入星链网络后,进一步扩充了星座规模,提升了星座的覆盖能力与服务稳定性。

Basic Information
目录编号:
56143
目录名称:
STARLINK-5016
国际标识:
2023-046BD
轨道中心:
EARTH
卫星名称:
星链-5016
卫星全名:
星链-5016 (STARLINK-5016 )
卫星状态:
在轨 (已飞行1176 天)
发射日期:
2023-03-29 UTC
国别 :
美国 (US)
星等 :
--
Orbit Information
数据来源 国际轨道数据 AOE轨道数据
星历时间 2026-06-17T10:32:41+0800
6小时前
查看轨道信息
2026-06-16T02:00:00+0800
1天前
查看轨道信息
半长轴 6892.562km 6892.87km
偏心率 0.0003821 0.0003618
轨道倾角 43.000° 43.001°
近地点辐角 291.411° 278.845°
升交点赤经 314.994° 322.535°
平近点角 68.633° 226.377°
近地点 511.791km 512.239km
远地点 517.059km 517.227km
周期 94.914分钟 94.920分钟
每日圈数 15.171614 15.170598
Detailed Information
固有亮度:
5
最大亮度:
2.5
卫星平台:
Starlink v1.5
覆盖范围:
全球
运营商:
太空探索技术公司
运营商所在国:
美国
制造商(研发单位):
太空探索技术公司
制造商所在国:
美国
使用方式:
暂无
Satellite Introduction
星链(Starlink)计划是由太空探索技术公司(SpaceX)提出的一个巨型低轨卫星互联网星座项目,计划在2019年至2024年间在太空搭建由约1.2万颗卫星组成的“星链”网络,其中1584颗将部署在地球上空550千米处的近地轨道,并从2020年开始工作。该卫星仍在工作。
2D Orbit Map
3D Orbit Map
Orbit Altitude Analysis Chart
Orbit Inclination Analysis Chart
Orbit Comprehensive Analysis Chart
View Comprehensive Chart